This is the latest recevied weather packets stored in our database for station/object G7UKK-10. If no packets are shown the sender has not sent any weather packets the latest 10 day(s).
| Time | Temp. | Humidity | Pressure | Rain* | Wind** | Luminosity | Snow |
|---|---|---|---|---|---|---|---|
| 1778138717 | 7.78° C | 82% | 1017.6 hPa | 0 mm | - | - | - |
| 1778137817 | 7.78° C | 83% | 1017.7 hPa | 0 mm | - | - | - |
| 1778136917 | 7.78° C | 83% | 1017.3 hPa | 0 mm | - | - | - |
| 1778136017 | 7.22° C | 84% | 1017.3 hPa | 0 mm | - | - | - |
| 1778135117 | 7.22° C | 84% | 1017.3 hPa | 0 mm | - | - | - |
| 1778134217 | 6.11° C | 86% | 1017.4 hPa | 0 mm | - | - | - |
| 1778133317 | 5.56° C | 87% | 1017.3 hPa | 0 mm | - | - | - |
| 1778132417 | 5.56° C | 87% | 1017.3 hPa | 0 mm | - | - | - |
| 1778131517 | 5.56° C | 87% | 1017.3 hPa | 0 mm | - | - | - |
| 1778130617 | 5.56° C | 86% | 1017.3 hPa | 0 mm | - | - | - |
| 1778129717 | 5.56° C | 86% | 1017.2 hPa | 0 mm | - | - | - |
| 1778128817 | 5.56° C | 87% | 1017.3 hPa | 0 mm | - | - | - |
| 1778127917 | 5.56° C | 87% | 1017.1 hPa | 0 mm | - | - | - |
| 1778127017 | 5.56° C | 87% | 1016.9 hPa | 0 mm | - | - | - |
| 1778126117 | 5.56° C | 86% | 1017.1 hPa | 0 mm | - | - | - |
| 1778125217 | 5° C | 86% | 1017.1 hPa | 0 mm | - | - | - |
| 1778124317 | 5° C | 85% | 1017.2 hPa | 0 mm | - | - | - |
| 1778123417 | 5° C | 85% | 1017.3 hPa | 0 mm | - | - | - |
| 1778122517 | 4.44° C | 84% | 1017.2 hPa | 0 mm | - | - | - |
| 1778121617 | 4.44° C | 86% | 1017.3 hPa | 0 mm | - | - | - |
| 1778120717 | 4.44° C | 86% | 1017.5 hPa | 0 mm | - | - | - |
| 1778119817 | 4.44° C | 86% | 1017.1 hPa | 0 mm | - | - | - |
| 1778118917 | 3.89° C | 87% | 1017.4 hPa | 0 mm | - | - | - |
| 1778118017 | 3.89° C | 87% | 1017.1 hPa | 0 mm | - | - | - |
| 1778117117 | 3.89° C | 87% | 1017.3 hPa | 0 mm | - | - | - |
* Rain latest hour (hover to see other rain measurements)
** Current wind speed in m/s (hover to see current wind gust speed)